When you browse on this site, cookies collect data to enhance your experience and personalize the content and advertising you see.
Visit our Privacy Policy to learn more. By continuing to use the site, you agree to this use of cookies and data.
  • In Hungary
  • List of Countries
  • For 7 days
  • Water Temperature
  • Satellite Maps
  • Weather Map
  • News
  • Weather Widgets
  • user-avatar
    Login

    Hourly Weather Kacwin

    Today, 22 April, Monday

    Time Temperature Precipitation Wind Pressure Humidity
    00:00 +7°C° 0 mm 1 mps 703 mmHg 79%
    01:00 +6°C° 0 mm 1 mps 703 mmHg 79%
    02:00 +6°C° 0 mm 1 mps 703 mmHg 80%
    03:00 +6°C° 0 mm 1 mps 703 mmHg 81%
    04:00 +6°C° 0 mm 1 mps 702 mmHg 81%
    05:00 +7°C° 0.1 mm 1 mps 703 mmHg 76%
    06:00 +9°C° 0.1 mm 1 mps 703 mmHg 72%
    07:00 +9°C° 0.1 mm 0 mps 703 mmHg 67%
    08:00 +11°C° 0.9 mm 1 mps 703 mmHg 66%
    09:00 +12°C° 0.9 mm 2 mps 704 mmHg 65%
    10:00 +12°C° 0.9 mm 3 mps 704 mmHg 65%
    11:00 +11°C° 1 mm 3 mps 703 mmHg 68%
    12:00 +11°C° 1 mm 3 mps 703 mmHg 71%
    13:00 +10°C° 1 mm 3 mps 703 mmHg 74%
    14:00 +11°C° 0.1 mm 3 mps 703 mmHg 70%
    15:00 +11°C° 0.1 mm 3 mps 703 mmHg 66%
    16:00 +12°C° 0.1 mm 3 mps 703 mmHg 62%
    17:00 +11°C° 0 mm 3 mps 703 mmHg 70%
    18:00 +9°C° 0 mm 2 mps 703 mmHg 77%
    19:00 +8°C° 0 mm 2 mps 703 mmHg 85%
    20:00 +7°C° 0 mm 2 mps 703 mmHg 87%
    21:00 +7°C° 0 mm 2 mps 704 mmHg 90%
    22:00 +5°C° 0 mm 3 mps 704 mmHg 93%
    23:00 +5°C° 0 mm 3 mps 704 mmHg 93%

    Tomorrow, 23 April, Tuesday

    Time Temperature Precipitation Wind Pressure Humidity
    00:00 +4°C° 0 mm 3 mps 704 mmHg 93%
    01:00 +4°C° 0 mm 3 mps 704 mmHg 94%
    02:00 +4°C° 0.1 mm 3 mps 704 mmHg 92%
    03:00 +4°C° 0.1 mm 3 mps 704 mmHg 91%
    04:00 +4°C° 0.1 mm 3 mps 703 mmHg 90%
    05:00 +5°C° 0.1 mm 3 mps 704 mmHg 87%
    06:00 +5°C° 0.1 mm 3 mps 704 mmHg 84%
    07:00 +6°C° 0.1 mm 4 mps 704 mmHg 80%
    08:00 +7°C° 0 mm 4 mps 704 mmHg 74%
    09:00 +8°C° 0 mm 4 mps 704 mmHg 68%
    10:00 +10°C° 0 mm 5 mps 704 mmHg 62%
    11:00 +10°C° 0 mm 5 mps 704 mmHg 59%
    12:00 +11°C° 0 mm 6 mps 704 mmHg 56%
    13:00 +13°C° 0 mm 6 mps 704 mmHg 54%
    14:00 +11°C° 0.1 mm 6 mps 704 mmHg 59%
    15:00 +10°C° 0.1 mm 6 mps 703 mmHg 64%
    16:00 +9°C° 0.1 mm 6 mps 703 mmHg 69%
    17:00 +8°C° 0.2 mm 5 mps 703 mmHg 74%
    18:00 +7°C° 0.2 mm 5 mps 703 mmHg 79%
    19:00 +7°C° 0.2 mm 5 mps 703 mmHg 84%
    20:00 +6°C° 0 mm 4 mps 703 mmHg 84%
    21:00 +6°C° 0 mm 4 mps 703 mmHg 85%
    22:00 +6°C° 0 mm 4 mps 703 mmHg 86%
    23:00 +6°C° 0 mm 4 mps 703 mmHg 86%

    Day after tomorrow, 24 April, Wednesday

    Time Temperature Precipitation Wind Pressure Humidity
    00:00 +6°C° 0 mm 4 mps 703 mmHg 85%
    01:00 +6°C° 0 mm 4 mps 703 mmHg 85%
    02:00 +6°C° 0 mm 4 mps 703 mmHg 85%
    03:00 +6°C° 0 mm 4 mps 703 mmHg 85%
    04:00 +6°C° 0 mm 4 mps 703 mmHg 85%
    05:00 +7°C° 0 mm 4 mps 703 mmHg 84%
    06:00 +7°C° 0 mm 4 mps 704 mmHg 82%
    07:00 +8°C° 0 mm 4 mps 704 mmHg 81%
    08:00 +10°C° 0 mm 4 mps 704 mmHg 77%
    09:00 +12°C° 0 mm 5 mps 705 mmHg 72%
    10:00 +13°C° 0 mm 5 mps 705 mmHg 68%
    11:00 +13°C° 0 mm 5 mps 705 mmHg 68%
    12:00 +14°C° 0 mm 5 mps 705 mmHg 69%
    13:00 +14°C° 0 mm 5 mps 705 mmHg 69%
    14:00 +14°C° 0 mm 5 mps 705 mmHg 69%
    15:00 +14°C° 0 mm 5 mps 705 mmHg 69%
    16:00 +14°C° 0 mm 4 mps 705 mmHg 70%
    17:00 +13°C° 0 mm 4 mps 705 mmHg 76%
    18:00 +11°C° 0 mm 3 mps 705 mmHg 82%
    19:00 +10°C° 0 mm 3 mps 704 mmHg 89%
    20:00 +10°C° 0 mm 3 mps 705 mmHg 90%
    21:00 +10°C° 0 mm 3 mps 705 mmHg 92%
    22:00 +10°C° 0 mm 3 mps 705 mmHg 94%
    23:00 +10°C° 0 mm 3 mps 705 mmHg 94%

    25 April, Thursday

    Time Temperature Precipitation Wind Pressure Humidity
    00:00 +10°C° 0 mm 3 mps 705 mmHg 95%
    01:00 +10°C° 0 mm 3 mps 705 mmHg 96%
    02:00 +10°C° 0 mm 3 mps 705 mmHg 95%
    03:00 +10°C° 0 mm 3 mps 705 mmHg 95%
    04:00 +10°C° 0 mm 3 mps 705 mmHg 95%
    05:00 +11°C° 0 mm 3 mps 705 mmHg 90%
    06:00 +12°C° 0 mm 4 mps 705 mmHg 85%
    07:00 +13°C° 0 mm 4 mps 705 mmHg 80%
    08:00 +14°C° 0 mm 5 mps 706 mmHg 74%
    09:00 +16°C° 0 mm 5 mps 706 mmHg 68%
    10:00 +17°C° 0 mm 5 mps 706 mmHg 62%
    11:00 +19°C° 0 mm 5 mps 706 mmHg 59%
    12:00 +20°C° 0 mm 5 mps 706 mmHg 56%
    13:00 +20°C° 0 mm 5 mps 706 mmHg 54%
    14:00 +20°C° 0 mm 5 mps 706 mmHg 56%
    15:00 +20°C° 0 mm 4 mps 706 mmHg 58%
    16:00 +20°C° 0 mm 4 mps 705 mmHg 60%
    17:00 +18°C° 0 mm 4 mps 705 mmHg 69%
    18:00 +16°C° 0 mm 3 mps 705 mmHg 79%
    19:00 +15°C° 0 mm 2 mps 705 mmHg 88%
    20:00 +14°C° 0 mm 2 mps 705 mmHg 90%
    21:00 +14°C° 0 mm 2 mps 705 mmHg 93%
    22:00 +13°C° 0 mm 2 mps 705 mmHg 95%
    23:00 +13°C° 0 mm 2 mps 705 mmHg 95%

    26 April, Friday

    Time Temperature Precipitation Wind Pressure Humidity
    00:00 +13°C° 0 mm 2 mps 705 mmHg 95%
    01:00 +13°C° 0 mm 2 mps 704 mmHg 95%
    02:00 +12°C° 0 mm 3 mps 704 mmHg 95%
    03:00 +12°C° 0 mm 3 mps 704 mmHg 95%
    04:00 +12°C° 0 mm 3 mps 704 mmHg 94%
    05:00 +13°C° 0 mm 4 mps 704 mmHg 88%
    06:00 +14°C° 0 mm 4 mps 704 mmHg 81%
    07:00 +15°C° 0 mm 5 mps 704 mmHg 75%
    08:00 +16°C° 0 mm 5 mps 704 mmHg 70%
    09:00 +19°C° 0 mm 6 mps 704 mmHg 64%
    10:00 +20°C° 0 mm 6 mps 704 mmHg 58%
    11:00 +21°C° 0 mm 6 mps 704 mmHg 57%
    12:00 +21°C° 0 mm 6 mps 704 mmHg 56%
    13:00 +21°C° 0 mm 6 mps 704 mmHg 55%
    14:00 +21°C° 0 mm 5 mps 703 mmHg 58%
    15:00 +21°C° 0 mm 5 mps 703 mmHg 60%
    16:00 +20°C° 0 mm 4 mps 702 mmHg 62%
    17:00 +19°C° 0 mm 4 mps 702 mmHg 70%
    18:00 +18°C° 0 mm 3 mps 702 mmHg 77%
    19:00 +17°C° 0 mm 3 mps 702 mmHg 84%
    20:00 +16°C° 0.3 mm 2 mps 702 mmHg 87%
    21:00 +15°C° 0.3 mm 2 mps 702 mmHg 89%
    22:00 +15°C° 0.3 mm 2 mps 702 mmHg 92%
    23:00 +14°C° 0.8 mm 2 mps 702 mmHg 92%

    27 April, Saturday

    Time Temperature Precipitation Wind Pressure Humidity
    00:00 +13°C° 0.8 mm 1 mps 702 mmHg 93%
    01:00 +13°C° 0.8 mm 1 mps 702 mmHg 94%
    02:00 +13°C° 0.5 mm 1 mps 702 mmHg 95%
    03:00 +12°C° 0.5 mm 1 mps 703 mmHg 96%
    04:00 +12°C° 0.5 mm 1 mps 703 mmHg 97%
    05:00 +10°C° 0.2 mm 2 mps 703 mmHg 96%
    06:00 +10°C° 0.2 mm 2 mps 703 mmHg 95%
    07:00 +10°C° 0.2 mm 2 mps 704 mmHg 94%
    08:00 +10°C° 0.1 mm 2 mps 704 mmHg 92%
    09:00 +9°C° 0.1 mm 2 mps 704 mmHg 90%
    10:00 +9°C° 0.1 mm 2 mps 705 mmHg 88%
    11:00 +9°C° 0.6 mm 2 mps 705 mmHg 88%
    12:00 +9°C° 0.6 mm 2 mps 705 mmHg 88%
    13:00 +9°C° 0.6 mm 2 mps 705 mmHg 88%
    14:00 +10°C° 0.4 mm 2 mps 705 mmHg 88%
    15:00 +10°C° 0.4 mm 2 mps 705 mmHg 87%
    16:00 +10°C° 0.4 mm 3 mps 705 mmHg 87%
    17:00 +9°C° 0.3 mm 2 mps 705 mmHg 89%
    18:00 +9°C° 0.3 mm 2 mps 706 mmHg 91%
    19:00 +9°C° 0.3 mm 2 mps 706 mmHg 93%
    20:00 +8°C° 0 mm 2 mps 706 mmHg 94%
    21:00 +8°C° 0 mm 2 mps 706 mmHg 94%
    22:00 +7°C° 0 mm 2 mps 706 mmHg 94%
    23:00 +7°C° 0 mm 2 mps 706 mmHg 93%
    Show more